Time,TemperatureF,DewpointF,PressureIn,WindDirection,WindDirectionDegrees,WindSpeedMPH,WindSpeedGustMPH,Humidity,HourlyPrecipIn,Conditions,Clouds,dailyrainin,SoftwareType,DateUTC
2013-01-26 00:06:00,51.5,44.6,29.96,ESE,113,0.4,2.2,77,0.00,,,0.00,WUHU216HW,2013-01-26 06:06:00,
2013-01-26 00:11:00,51.7,44.7,29.96,ENE,68,0.0,2.0,77,0.00,,,0.00,WUHU216HW,2013-01-26 06:11:00,
2013-01-26 00:19:00,51.8,44.9,29.96,NE,45,2.0,2.2,77,0.00,,,0.00,WUHU216HW,2013-01-26 06:19:00,
2013-01-26 00:24:00,51.8,44.9,29.95,ENE,68,1.6,2.2,77,0.00,,,0.00,WUHU216HW,2013-01-26 06:24:00,
2013-01-26 00:32:00,51.8,44.6,29.95,SSW,203,1.1,2.0,76,0.00,,,0.00,WUHU216HW,2013-01-26 06:32:00,
2013-01-26 00:38:00,51.8,44.6,29.95,North,0,0.4,1.8,76,0.00,,,0.00,WUHU216HW,2013-01-26 06:38:00,
2013-01-26 00:46:00,51.8,44.6,29.95,North,0,0.7,1.8,76,0.00,,,0.00,WUHU216HW,2013-01-26 06:46:00,
2013-01-26 00:51:00,52.0,44.7,29.96,NNW,338,0.4,1.8,76,0.00,,,0.00,WUHU216HW,2013-01-26 06:51:00,
2013-01-26 00:59:00,52.0,44.7,29.96,WNW,293,0.0,0.4,76,0.00,,,0.00,WUHU216HW,2013-01-26 06:59:00,
2013-01-26 01:05:00,52.2,44.6,29.96,ENE,68,0.9,1.1,75,0.00,,,0.00,WUHU216HW,2013-01-26 07:05:00,
2013-01-26 01:13:00,52.2,44.9,29.96,NNE,23,1.6,1.6,76,0.00,,,0.00,WUHU216HW,2013-01-26 07:13:00,
2013-01-26 01:18:00,52.2,44.6,29.96,North,0,0.7,2.7,75,0.00,,,0.00,WUHU216HW,2013-01-26 07:18:00,
2013-01-26 01:26:00,52.0,44.7,29.95,NE,45,2.5,2.5,76,0.00,,,0.00,WUHU216HW,2013-01-26 07:26:00,
2013-01-26 01:31:00,52.0,44.7,29.95,ENE,68,1.1,2.5,76,0.00,,,0.00,WUHU216HW,2013-01-26 07:31:00,
2013-01-26 01:39:00,52.0,45.1,29.95,ENE,68,0.2,1.8,77,0.00,,,0.00,WUHU216HW,2013-01-26 07:39:00,
2013-01-26 01:45:00,51.8,45.2,29.95,NE,45,1.1,2.5,78,0.00,,,0.00,WUHU216HW,2013-01-26 07:45:00,
2013-01-26 01:53:00,51.3,45.0,29.95,NE,45,0.0,3.8,79,0.00,,,0.00,WUHU216HW,2013-01-26 07:53:00,
2013-01-26 01:58:00,51.3,45.0,29.94,East,90,0.4,3.8,79,0.00,,,0.00,WUHU216HW,2013-01-26 07:58:00,
2013-01-26 02:06:00,51.3,45.4,29.94,NE,45,1.8,3.4,80,0.00,,,0.00,WUHU216HW,2013-01-26 08:06:00,
2013-01-26 02:11:00,51.1,45.2,29.94,ENE,68,0.2,3.4,80,0.00,,,0.00,WUHU216HW,2013-01-26 08:11:00,
2013-01-26 02:19:00,51.1,45.2,29.94,ENE,68,1.8,3.4,80,0.00,,,0.00,WUHU216HW,2013-01-26 08:19:00,
2013-01-26 02:25:00,51.1,45.2,29.93,NNE,23,2.7,2.7,80,0.00,,,0.00,WUHU216HW,2013-01-26 08:25:00,
2013-01-26 02:30:00,51.1,45.2,29.93,ENE,68,2.2,2.7,80,0.00,,,0.00,WUHU216HW,2013-01-26 08:30:00,
2013-01-26 02:35:00,51.1,45.2,29.93,ENE,68,0.4,3.4,80,0.00,,,0.00,WUHU216HW,2013-01-26 08:35:00,
2013-01-26 02:41:00,51.1,44.8,29.94,NE,45,0.9,2.5,79,0.00,,,0.00,WUHU216HW,2013-01-26 08:41:00,
2013-01-26 02:46:00,51.3,45.0,29.94,NNE,23,0.4,1.1,79,0.00,,,0.00,WUHU216HW,2013-01-26 08:46:00,
2013-01-26 02:51:00,51.5,45.2,29.94,NNE,23,0.7,1.1,79,0.00,,,0.00,WUHU216HW,2013-01-26 08:51:00,
2013-01-26 02:56:00,51.5,44.8,29.94,NNW,338,0.7,1.8,78,0.00,,,0.00,WUHU216HW,2013-01-26 08:56:00,
2013-01-26 03:02:00,51.3,44.6,29.94,NNE,23,2.0,2.0,78,0.00,,,0.00,WUHU216HW,2013-01-26 09:02:00,
2013-01-26 03:07:00,51.3,44.6,29.94,NNE,23,0.4,2.0,78,0.00,,,0.00,WUHU216HW,2013-01-26 09:07:00,
2013-01-26 03:12:00,51.1,44.5,29.94,NW,315,0.4,1.6,78,0.00,,,0.00,WUHU216HW,2013-01-26 09:12:00,
2013-01-26 03:17:00,51.1,44.5,29.94,NNE,23,0.7,1.1,78,0.00,,,0.00,WUHU216HW,2013-01-26 09:17:00,
2013-01-26 03:22:00,51.1,44.5,29.93,NW,315,0.0,1.6,78,0.00,,,0.00,WUHU216HW,2013-01-26 09:22:00,
2013-01-26 03:28:00,51.1,44.5,29.93,NNW,338,0.2,1.6,78,0.00,,,0.00,WUHU216HW,2013-01-26 09:28:00,
2013-01-26 03:33:00,51.1,44.5,29.93,NE,45,0.7,1.1,78,0.00,,,0.00,WUHU216HW,2013-01-26 09:33:00,
2013-01-26 03:38:00,50.9,44.3,29.93,NNE,23,0.7,1.6,78,0.00,,,0.00,WUHU216HW,2013-01-26 09:38:00,
2013-01-26 03:43:00,50.8,44.5,29.93,WNW,293,0.2,1.6,79,0.00,,,0.00,WUHU216HW,2013-01-26 09:43:00,
2013-01-26 03:48:00,50.8,44.5,29.93,WNW,293,0.0,1.6,79,0.00,,,0.00,WUHU216HW,2013-01-26 09:48:00,
2013-01-26 03:54:00,50.8,44.5,29.93,NNE,23,1.1,1.1,79,0.00,,,0.00,WUHU216HW,2013-01-26 09:54:00,
2013-01-26 03:59:00,50.6,44.6,29.93,ENE,68,0.0,2.5,80,0.00,,,0.00,WUHU216HW,2013-01-26 09:59:00,
2013-01-26 04:04:00,50.4,44.5,29.92,SE,135,0.2,2.5,80,0.00,,,0.00,WUHU216HW,2013-01-26 10:04:00,
2013-01-26 04:09:00,50.2,44.6,29.92,East,90,0.0,0.9,81,0.00,,,0.00,WUHU216HW,2013-01-26 10:09:00,
2013-01-26 04:14:00,50.0,44.1,29.92,North,0,0.9,1.1,80,0.00,,,0.00,WUHU216HW,2013-01-26 10:14:00,
2013-01-26 04:20:00,50.0,44.4,29.92,NNE,23,0.2,1.1,81,0.00,,,0.00,WUHU216HW,2013-01-26 10:20:00,
2013-01-26 04:25:00,50.0,44.4,29.93,NNE,23,0.0,1.1,81,0.00,,,0.00,WUHU216HW,2013-01-26 10:25:00,
2013-01-26 04:30:00,49.9,44.2,29.93,North,0,0.0,1.8,81,0.00,,,0.00,WUHU216HW,2013-01-26 10:30:00,
2013-01-26 04:35:00,49.9,44.6,29.93,North,0,1.1,2.0,82,0.00,,,0.00,WUHU216HW,2013-01-26 10:35:00,
2013-01-26 04:40:00,49.7,44.4,29.93,East,90,0.0,2.0,82,0.00,,,0.00,WUHU216HW,2013-01-26 10:40:00,
2013-01-26 04:46:00,49.7,44.4,29.93,NE,45,0.7,2.5,82,0.00,,,0.00,WUHU216HW,2013-01-26 10:46:00,
2013-01-26 04:51:00,49.5,44.2,29.93,NE,45,0.0,0.9,82,0.00,,,0.00,WUHU216HW,2013-01-26 10:51:00,
2013-01-26 04:56:00,49.3,44.0,29.93,NE,45,0.2,1.3,82,0.00,,,0.00,WUHU216HW,2013-01-26 10:56:00,
2013-01-26 05:01:00,49.3,44.3,29.93,NE,45,2.0,2.0,83,0.00,,,0.00,WUHU216HW,2013-01-26 11:01:00,
2013-01-26 05:07:00,49.1,44.1,29.93,ENE,68,0.7,2.5,83,0.00,,,0.00,WUHU216HW,2013-01-26 11:07:00,
2013-01-26 05:12:00,49.1,44.1,29.93,NNE,23,0.0,2.5,83,0.00,,,0.00,WUHU216HW,2013-01-26 11:12:00,
2013-01-26 05:17:00,49.0,44.3,29.93,NE,45,2.2,2.2,84,0.00,,,0.00,WUHU216HW,2013-01-26 11:17:00,
2013-01-26 05:22:00,48.8,44.1,29.93,NE,45,0.0,2.2,84,0.00,,,0.00,WUHU216HW,2013-01-26 11:22:00,
2013-01-26 05:27:00,48.6,43.9,29.93,NE,45,0.4,1.8,84,0.00,,,0.00,WUHU216HW,2013-01-26 11:27:00,
2013-01-26 05:32:00,48.6,43.9,29.93,NE,45,1.1,1.3,84,0.00,,,0.00,WUHU216HW,2013-01-26 11:32:00,
2013-01-26 05:37:00,48.6,44.3,29.93,ENE,68,1.1,1.1,85,0.00,,,0.00,WUHU216HW,2013-01-26 11:37:00,
2013-01-26 05:43:00,48.6,44.3,29.93,ENE,68,0.2,1.1,85,0.00,,,0.00,WUHU216HW,2013-01-26 11:43:00,
2013-01-26 05:48:00,48.4,44.1,29.93,ENE,68,1.1,1.1,85,0.00,,,0.00,WUHU216HW,2013-01-26 11:48:00,
2013-01-26 05:53:00,48.4,44.1,29.93,NE,45,1.6,1.6,85,0.00,,,0.00,WUHU216HW,2013-01-26 11:53:00,
2013-01-26 05:58:00,48.4,44.1,29.94,NE,45,0.0,1.8,85,0.00,,,0.00,WUHU216HW,2013-01-26 11:58:00,
2013-01-26 06:04:00,48.4,44.1,29.93,NE,45,1.1,1.8,85,0.00,,,0.00,WUHU216HW,2013-01-26 12:04:00,
2013-01-26 06:09:00,48.4,44.1,29.94,NE,45,0.0,1.1,85,0.00,,,0.00,WUHU216HW,2013-01-26 12:09:00,
2013-01-26 06:14:00,48.4,44.1,29.93,NE,45,0.0,0.7,85,0.00,,,0.00,WUHU216HW,2013-01-26 12:14:00,
2013-01-26 06:19:00,48.6,44.3,29.94,NE,45,0.0,0.4,85,0.00,,,0.00,WUHU216HW,2013-01-26 12:19:00,
2013-01-26 06:25:00,48.6,44.3,29.94,NNE,23,0.0,1.1,85,0.00,,,0.00,WUHU216HW,2013-01-26 12:25:00,
2013-01-26 06:30:00,48.6,44.3,29.94,NNE,23,0.0,1.1,85,0.00,,,0.00,WUHU216HW,2013-01-26 12:30:00,
2013-01-26 06:35:00,48.6,44.3,29.94,NNE,23,0.4,0.7,85,0.00,,,0.00,WUHU216HW,2013-01-26 12:35:00,
2013-01-26 06:40:00,48.4,44.1,29.94,NE,45,1.1,1.1,85,0.00,,,0.00,WUHU216HW,2013-01-26 12:40:00,
2013-01-26 06:45:00,48.4,44.1,29.94,NE,45,0.0,1.8,85,0.00,,,0.00,WUHU216HW,2013-01-26 12:45:00,
2013-01-26 06:50:00,48.4,44.1,29.94,NE,45,0.9,1.8,85,0.00,,,0.00,WUHU216HW,2013-01-26 12:50:00,
2013-01-26 06:56:00,48.6,44.6,29.94,ENE,68,0.0,1.1,86,0.00,,,0.00,WUHU216HW,2013-01-26 12:56:00,
2013-01-26 07:01:00,48.6,44.3,29.94,North,0,0.0,0.0,85,0.00,,,0.00,WUHU216HW,2013-01-26 13:01:00,
2013-01-26 07:06:00,48.6,44.3,29.94,NNE,23,0.0,0.7,85,0.00,,,0.00,WUHU216HW,2013-01-26 13:06:00,
2013-01-26 07:12:00,48.6,44.3,29.94,NNE,23,0.0,0.7,85,0.00,,,0.00,WUHU216HW,2013-01-26 13:12:00,
2013-01-26 07:17:00,48.6,44.3,29.94,NNE,23,0.0,1.3,85,0.00,,,0.00,WUHU216HW,2013-01-26 13:17:00,
2013-01-26 07:22:00,48.6,44.3,29.95,NNE,23,0.0,1.3,85,0.00,,,0.00,WUHU216HW,2013-01-26 13:22:00,
2013-01-26 07:27:00,48.6,44.6,29.95,NE,45,0.0,2.0,86,0.00,,,0.00,WUHU216HW,2013-01-26 13:27:00,
2013-01-26 07:32:00,48.6,44.6,29.95,NE,45,0.0,2.0,86,0.00,,,0.00,WUHU216HW,2013-01-26 13:32:00,
2013-01-26 07:37:00,48.4,44.7,29.96,NE,45,1.1,1.8,87,0.00,,,0.00,WUHU216HW,2013-01-26 13:37:00,
2013-01-26 07:42:00,48.4,44.7,29.96,NE,45,0.0,1.8,87,0.00,,,0.00,WUHU216HW,2013-01-26 13:42:00,
2013-01-26 07:48:00,48.6,44.9,29.96,ENE,68,0.9,1.8,87,0.00,,,0.00,WUHU216HW,2013-01-26 13:48:00,
2013-01-26 07:53:00,48.4,44.7,29.96,NE,45,1.1,1.6,87,0.00,,,0.00,WUHU216HW,2013-01-26 13:53:00,
2013-01-26 07:58:00,48.4,44.7,29.96,NE,45,0.0,1.6,87,0.00,,,0.00,WUHU216HW,2013-01-26 13:58:00,
2013-01-26 08:04:00,48.4,45.1,29.96,NE,45,0.0,0.4,88,0.00,,,0.00,WUHU216HW,2013-01-26 14:04:00,
2013-01-26 08:09:00,48.6,44.9,29.96,NE,45,0.0,0.0,87,0.00,,,0.00,WUHU216HW,2013-01-26 14:09:00,
2013-01-26 08:14:00,48.6,44.9,29.96,NE,45,0.7,0.7,87,0.00,,,0.00,WUHU216HW,2013-01-26 14:14:00,
2013-01-26 08:15:00,48.6,44.9,29.96,NE,45,0.0,0.7,87,0.00,,,0.00,WUHU216HW,2013-01-26 14:15:00,
2013-01-26 21:43:00,51.8,49.0,29.90,ESE,113,0.0,0.0,90,0.00,,,0.00,WUHU216HW,2013-01-27 03:43:00,
2013-01-26 21:48:00,51.7,48.8,29.90,ESE,113,0.4,0.7,90,0.00,,,0.00,WUHU216HW,2013-01-27 03:48:00,
2013-01-26 21:53:00,51.8,49.0,29.89,ESE,113,0.0,0.7,90,0.00,,,0.00,WUHU216HW,2013-01-27 03:53:00,
2013-01-26 21:58:00,51.8,49.0,29.89,ESE,113,0.0,0.4,90,0.00,,,0.00,WUHU216HW,2013-01-27 03:58:00,
2013-01-26 22:03:00,51.8,49.0,29.90,ESE,113,0.4,0.4,90,0.00,,,0.00,WUHU216HW,2013-01-27 04:03:00,
2013-01-26 22:08:00,51.7,48.8,29.90,ESE,113,0.0,0.4,90,0.00,,,0.00,WUHU216HW,2013-01-27 04:08:00,
2013-01-26 22:13:00,51.7,48.8,29.90,ESE,113,0.0,0.0,90,0.00,,,0.00,WUHU216HW,2013-01-27 04:13:00,
2013-01-26 22:18:00,51.7,48.8,29.90,ESE,113,0.2,0.7,90,0.00,,,0.00,WUHU216HW,2013-01-27 04:18:00,
2013-01-26 22:23:00,51.7,48.8,29.90,ESE,113,0.0,0.7,90,0.00,,,0.00,WUHU216HW,2013-01-27 04:23:00,
2013-01-26 22:28:00,51.5,48.6,29.90,ESE,113,0.0,0.0,90,0.00,,,0.00,WUHU216HW,2013-01-27 04:28:00,
2013-01-26 22:33:00,51.5,48.6,29.90,ESE,113,0.0,0.0,90,0.00,,,0.00,WUHU216HW,2013-01-27 04:33:00,
2013-01-26 22:38:00,51.3,48.4,29.90,ESE,113,0.0,0.0,90,0.00,,,0.00,WUHU216HW,2013-01-27 04:38:00,
2013-01-26 22:43:00,50.9,48.1,29.90,ESE,113,0.0,0.0,90,0.00,,,0.00,WUHU216HW,2013-01-27 04:43:00,
2013-01-26 22:48:00,50.8,47.9,29.90,ESE,113,0.0,0.0,90,0.00,,,0.00,WUHU216HW,2013-01-27 04:48:00,
2013-01-26 22:53:00,50.8,47.9,29.89,ESE,113,0.0,0.0,90,0.00,,,0.00,WUHU216HW,2013-01-27 04:53:00,
2013-01-26 22:58:00,50.6,47.7,29.90,ESE,113,0.0,0.0,90,0.00,,,0.00,WUHU216HW,2013-01-27 04:58:00,
2013-01-26 23:00:00,50.6,47.7,29.90,ESE,113,0.0,0.0,90,0.00,,,0.00,WUHU216HW,2013-01-27 05:00:00,
2013-01-26 23:01:00,50.6,47.7,29.90,ESE,113,0.0,0.0,90,0.00,,,0.00,WUHU216HW,2013-01-27 05:01:00,
2013-01-26 23:03:00,50.6,47.7,29.89,ESE,113,0.0,0.0,90,0.00,,,0.00,WUHU216HW,2013-01-27 05:03:00,
2013-01-26 23:08:00,50.6,47.7,29.89,ESE,113,0.0,0.0,90,0.00,,,0.00,WUHU216HW,2013-01-27 05:08:00,
2013-01-26 23:13:00,50.4,47.5,29.90,ESE,113,0.0,0.0,90,0.00,,,0.00,WUHU216HW,2013-01-27 05:13:00,
2013-01-26 23:18:00,50.4,47.5,29.89,ESE,113,0.0,0.0,90,0.00,,,0.00,WUHU216HW,2013-01-27 05:18:00,
2013-01-26 23:23:00,50.6,47.7,29.89,ESE,113,0.0,0.0,90,0.00,,,0.00,WUHU216HW,2013-01-27 05:23:00,
2013-01-26 23:28:00,50.8,47.9,29.89,ESE,113,0.0,0.0,90,0.00,,,0.00,WUHU216HW,2013-01-27 05:28:00,
2013-01-26 23:33:00,50.9,48.1,29.89,ESE,113,1.1,1.1,90,0.00,,,0.00,WUHU216HW,2013-01-27 05:33:00,
2013-01-26 23:38:00,51.1,48.2,29.89,SSW,203,1.8,1.8,90,0.00,,,0.00,WUHU216HW,2013-01-27 05:38:00,
2013-01-26 23:43:00,51.1,48.2,29.89,SSW,203,0.0,1.8,90,0.00,,,0.00,WUHU216HW,2013-01-27 05:43:00,
2013-01-26 23:48:00,51.1,48.2,29.89,SSW,203,0.0,0.7,90,0.00,,,0.00,WUHU216HW,2013-01-27 05:48:00,
2013-01-26 23:53:00,51.5,48.6,29.89,SE,135,0.7,1.1,90,0.00,,,0.00,WUHU216HW,2013-01-27 05:53:00,
2013-01-26 23:58:00,51.8,49.2,29.89,SE,135,0.0,1.1,91,0.00,,,0.00,WUHU216HW,2013-01-27 05:58:00,